Regional Weather Roundup
Issued by NWS

Home | Current Version | Previous Version | Text Only | Print | Product List | Glossary On
Versions: 1 2 3 4 5 6 7 8 9 10 11 12 13 14 15 16 17 18 19 20 21 22 23 24 25 26 27 28 29 30 31 32 33 34 35 36 37 38 39 40 41 42 43 44 45 46 47 48 49 50
000
ASUS44 KMEG 230210
RWRTN
TENNESSEE HOURLY STATE WEATHER ROUNDUP
NATIONAL WEATHER SERVICE MEMPHIS TN
900 PM CDT THU JUN 22 2017

TNZ002-004-019-021-049-052-054-088>092-230300-
WEST TENNESSEE

CITY           SKY/WX    TMP DP  RH WIND       PRES   REMARKS
MEMPHIS INTL   MOCLDY    79  77  94 SE9       29.74F
NWS MEMPHIS      N/A     77 N/A N/A MISG        N/A
JACKSON        CLOUDY    78  76  93 SE3       29.80S
SOMERVILLE     PTCLDY    77  75  94 CALM      29.77F
COVINGTON      MOCLDY    77  75  94 SE9       29.77F
UNION CITY     CLOUDY    81  75  83 S9        29.78R
BOLIVAR        CLOUDY    77  75  94 VRB5      29.79F
PARIS          PTCLDY    79  73  83 S10       29.80S
HUNTINGDON     CLOUDY    79  75  89 S8        29.80S
LEXINGTON      CLOUDY    79  73  83 SE6       29.83R
SELMER         CLOUDY    77  75  94 SE7G13    29.82S
SAVANNAH       CLOUDY    79  73  83 S10G16    29.81S
$$

TNZ008-025-027-028-033-062-065-066-230300-
NORTH MIDDLE TENNESSEE

CITY           SKY/WX    TMP DP  RH WIND       PRES   REMARKS
NASHVILLE      MOCLDY    76  73  91 S9        29.89F
PORTLAND       MOCLDY    75  73  94 S12       29.88S
CLARKSVILLE    PTCLDY    77  72  84 S6        29.84R
SMYRNA         PTCLDY    76  73  91 S7        29.91S
COOKEVILLE     CLOUDY    75  72  88 S10       29.95R
GALLATIN       PTCLDY    77  73  88 S7        29.91S
CROSSVILLE     CLOUDY    72  69  90 VRB7      30.02R
$$

TNZ061-075-076-078-094-096-097-230300-
SOUTH MIDDLE TENNESSEE

CITY           SKY/WX    TMP DP  RH WIND       PRES   REMARKS
FAYETTEVILLE   CLOUDY    75  73  94 S10       29.93S
TULLAHOMA      CLOUDY    73  72  94 S8        29.95S
WINCHESTER     CLOUDY    75  72  88 S8          N/A
MCMINNVILLE    PTCLDY    75  75 100 CALM      29.95S
COLUMBIA       CLOUDY    77  75  94 S7        29.86S
SHELBYVILLE    CLOUDY    75  73  94 S7        29.92S
$$

TNZ017-018-042-046-047-230300-
NORTHEAST TENNESSEE

CITY           SKY/WX    TMP DP  RH WIND       PRES   REMARKS
TRI CITIES     CLOUDY    72  71  97 CALM      30.04S
ELIZABETHTON   CLOUDY    70  68  94 E5        30.05S
$$

TNZ012-013-036-069-073-074-230300-
CENTRAL EAST TENNESSEE

CITY           SKY/WX    TMP DP  RH WIND       PRES   REMARKS
KNOXVILLE      CLOUDY    73  71  93 NW5       29.99R
OAK RIDGE      CLOUDY    74  71  91 CALM      30.00R
DOWNTOWN KNOXV CLOUDY    73  73 100 CALM      29.98R FOG
GATLINBURG     PTCLDY    72  72 100 CALM      29.99R
MORRISTOWN     CLOUDY    73  72  94 CALM      30.00S
JACKSBORO      MOCLDY    72  72 100 NE3       30.03S FOG
$$

TNZ083-085-099-230300-
SOUTHEAST TENNESSEE

CITY           SKY/WX    TMP DP  RH WIND       PRES   REMARKS
CHATTANOOGA    CLOUDY    76  74  93 CALM      29.98S FOG
$$

SKY/WX REPORTED AS FAIR MEANS FEW OR NO CLOUDS BELOW
12 THOUSAND FEET.





USA.gov is the U.S. government's official web portal to all federal, state and local government web resources and services.